Location: Innerarity Island Observatory
(30.3139°N, 87.4867°W)
Time: 03:17:50
(UTC-06:00)

OPAL - Visible Passes

Search period start: 21 December 2014 00:00
Search period end: 31 December 2014 00:00
Orbit: 744 x 796 km, 100.2° (Epoch: 20 December)

Date Brightness Start Highest point End Pass type
(mag) Time Alt. Az. Time Alt. Az. Time Alt. Az.
21 Dec 7.3 05:12:16 10° S 05:17:12 77° WSW 05:22:05 11° NNW visible
21 Dec 7.9 17:27:47 10° NNE 17:32:48 47° ESE 17:37:48 10° S visible
21 Dec 10.1 19:08:01 10° NNW 19:11:14 17° WNW 19:14:27 10° WSW visible
22 Dec 8.5 04:37:22 10° SE 04:42:01 43° ENE 04:46:20 12° N visible
22 Dec 9.1 06:18:06 10° SW 06:21:02 16° W 06:23:59 10° WNW visible
22 Dec 8.9 18:31:30 10° N 18:36:17 38° WNW 18:41:03 10° SW visible
23 Dec 9.9 04:03:41 10° ESE 04:07:02 18° ENE 04:10:25 10° NNE visible
23 Dec 8.0 05:40:58 10° S 05:45:33 39° W 05:50:13 10° NNW visible
23 Dec 7.6 17:55:55 10° NNE 18:01:09 90° WNW 18:06:22 10° SSW visible
24 Dec 7.4 05:05:18 10° SSE 05:10:15 84° ENE 05:15:10 11° NNW visible
24 Dec 8.2 17:21:02 10° NNE 17:25:51 38° E 17:30:39 10° SSE visible
24 Dec 9.8 19:00:37 10° NNW 19:04:24 21° WNW 19:08:12 10° WSW visible
25 Dec 8.9 04:30:41 10° SE 04:35:08 34° ENE 04:39:26 11° N visible
25 Dec 8.8 06:10:25 10° SW 06:14:00 20° W 06:17:38 10° NW visible
25 Dec 8.5 18:24:25 10° N 18:29:24 47° WNW 18:34:22 10° SW visible
26 Dec 10.1 03:57:28 10° E 04:00:11 15° ENE 04:02:56 10° NNE visible
26 Dec 7.7 05:33:48 10° S 05:38:35 49° WSW 05:43:27 10° NNW visible
26 Dec 7.5 17:49:01 10° NNE 17:54:13 73° ESE 17:59:25 10° S visible
26 Dec 10.4 19:31:05 10° NW 19:32:25 11° WNW 19:33:45 10° WNW visible
27 Dec 7.7 04:58:24 10° SSE 05:03:19 67° ENE 05:08:17 10° N visible
27 Dec 8.4 17:14:20 10° NE 17:18:53 30° E 17:23:25 10° SSE visible
27 Dec 9.5 18:53:20 10° NNW 18:57:33 26° WNW 19:01:47 10° WSW visible
28 Dec 9.3 04:24:04 10° SE 04:28:14 28° ENE 04:32:28 10° N visible
28 Dec 8.5 06:02:56 10° SSW 06:07:00 25° W 06:11:07 10° NW visible
28 Dec 8.1 18:17:23 10° N 18:22:30 59° WNW 18:27:37 10° SSW visible
29 Dec 10.3 03:51:36 10° E 03:53:21 12° ENE 03:55:07 10° NE visible
29 Dec 7.4 05:26:41 10° S 05:31:36 63° WSW 05:36:37 10° NNW visible
29 Dec 7.7 17:42:08 10° NNE 17:47:17 58° ESE 17:52:24 10° S visible
29 Dec 10.3 19:23:01 10° NW 19:25:36 14° WNW 19:28:11 10° W visible
30 Dec 8.2 04:51:34 10° SSE 04:56:23 53° ENE 05:01:18 10° N visible
30 Dec 9.2 18:46:08 10° N 18:50:41 32° WNW 18:55:14 10° SW visible
